カタログに戻る

STARLINK-30884

運用中通信VLEO
NORAD 58372·PAYLOAD·🇺🇸 United States

打ち上げ Nov 18, 2023 から Cape Canaveral Space Force Station

Loading…

次のパス (今後24時間)

TLE

最新Source: CelesTrak SupGP

元期: Sep 15, 2026, 03:00 UTC

1 58372C 23177X   26258.12548611  .00036529  00000+0  13228-2 0  2586
2 58372  43.0024   1.1466 0001353 264.7565 132.9671 15.27568579    10

AllMySatでSTARLINK-30884をリアルタイム追跡

Download on the App Store